This demonstration page uses our WeatherBlox Daily Observations layout. Learn more.

Left ArrowRight Arrow

30.00354, -91.81873

Hourly Observations for July 5, 2022

Temp ( °F °C ) Dew Point ( °F °C ) Humidity (%) Winds ( mph kmh ) Pressure ( in mb ) Visibility ( mi km ) Precip ( " mm )
12:53 am 00:53 Clear 80 26.7 76 24.4 87 87 Calm 30.05 1018 10 16 0.00 0.00
1:53 am 01:53 Clear 80 26.7 76 24.4 87 87 Calm 30.05 1018 10 16 0.00 0.00
2:53 am 02:53 Mostly Clear 80 26.7 76 24.4 87 87 Calm 30.04 1017 10 16 0.00 0.00
3:53 am 03:53 Clear 78 25.6 76 24.4 93 93 Calm 30.04 1017 10 16 0.00 0.00
4:53 am 04:53 Clear 78 25.6 76 24.4 93 93 Calm 30.04 1017 10 16 0.00 0.00
5:53 am 05:53 Clear 78 25.6 76 24.4 93 93 E 5 7 30.04 1017 10 16 0.00 0.00
6:53 am 06:53 Sunny with Mist and Fog 78 25.6 76 24.4 93 93 Calm 30.05 1018 6 10 0.00 0.00
7:53 am 07:53 Sunny 80 26.7 78 25.6 94 94 Calm 30.06 1018 10 16 0.00 0.00
8:53 am 08:53 Sunny 83 28.3 77 25 82 82 W 3 6 30.06 1018 10 16 0.00 0.00
9:53 am 09:53 Sunny 85 29.4 77 25 77 77 W 6 9 30.06 1018 10 16 0.00 0.00
10:53 am 10:53 Mostly Sunny 87 30.6 76 24.4 70 70 Calm 30.06 1018 10 16 0.00 0.00
11:53 am 11:53 Mostly Sunny 88 31.1 75 23.9 66 66 SW 6 9 30.06 1018 10 16 0.00 0.00
12:53 pm 12:53 Sunny 89 31.7 74 23.3 61 61 SSW 9 15 30.04 1017 10 16 0.00 0.00
1:53 pm 13:53 Mostly Sunny 84 28.9 75 23.9 74 74 SSW 13 20 30.04 1017 10 16 0.00 0.00
2:53 pm 14:53 Sunny 83 28.3 72 22.2 70 70 S 7 11 30.03 1017 10 16 0.00 0.00
3:53 pm 15:53 Sunny 83 28.3 73 22.8 72 72 S 6 9 30.01 1016 10 16 0.00 0.00
4:53 pm 16:53 Mostly Sunny 83 28.3 73 22.8 72 72 SSE 6 9 30.02 1017 10 16 0.00 0.00
5:53 pm 17:53 Sunny 83 28.3 74 23.3 74 74 SSE 8 13 30.01 1016 10 16 0.00 0.00
6:53 pm 18:53 Sunny 81 27.2 75 23.9 82 82 SE 8 13 30.00 1016 10 16 0.00 0.00
7:53 pm 19:53 Sunny 79 26.1 74 23.3 85 85 SE 8 13 29.98 1015 10 16 0.00 0.00
8:53 pm 20:53 Clear 78 25.6 74 23.3 87 87 S 6 9 29.97 1015 10 16 0.00 0.00
9:53 pm 21:53 Clear 78 25.6 75 23.9 90 90 Calm 29.98 1015 10 16 0.00 0.00
10:53 pm 22:53 Clear 78 25.6 75 23.9 90 90 ESE 5 7 29.99 1016 10 16 0.00 0.00
11:53 pm 23:53 Clear 77 25 75 23.9 94 94 SE 5 7 29.99 1016 10 16 0.00 0.00

Powered by AerisWeather